This is the latest recevied weather packets stored in our database for station/object N6DZK. If no packets are shown the sender has not sent any weather packets the latest 10 day(s).
| Time | Temp. | Humidity | Pressure | Rain* | Wind** | Luminosity | Snow |
|---|---|---|---|---|---|---|---|
| 1777817024 | 12.78° C | 84% | 1012.6 hPa | 0 mm | - | 27 W/m² | - |
| 1777816720 | 12.78° C | 85% | 1012.5 hPa | 0 mm | - | 24 W/m² | - |
| 1777816418 | 12.22° C | 85% | 1012.4 hPa | 0 mm | - | 17 W/m² | - |
| 1777816116 | 12.22° C | 85% | 1012.5 hPa | 0 mm | - | 15 W/m² | - |
| 1777815813 | 12.22° C | 85% | 1012.3 hPa | 0 mm | - | 14 W/m² | - |
| 1777815510 | 12.22° C | 85% | 1012.4 hPa | 0 mm | - | 9 W/m² | - |
| 1777815208 | 12.22° C | 85% | 1012.3 hPa | 0 mm | - | 6 W/m² | - |
| 1777814904 | 12.22° C | 86% | 1012 hPa | 0 mm | - | 6 W/m² | - |
| 1777814601 | 12.22° C | 85% | 1012.2 hPa | 0 mm | - | 5 W/m² | - |
| 1777814298 | 12.22° C | 85% | 1012.2 hPa | 0 mm | - | 2 W/m² | - |
| 1777813994 | 12.22° C | 85% | 1011.8 hPa | 0 mm | - | 1 W/m² | - |
| 1777813692 | 12.22° C | 86% | 1012 hPa | 0 mm | - | 1 W/m² | - |
| 1777813389 | 12.22° C | 86% | 1011.8 hPa | 0 mm | - | 0 W/m² | - |
| 1777813086 | 12.22° C | 85% | 1011.8 hPa | 0 mm | - | 0 W/m² | - |
| 1777812784 | 12.22° C | 85% | 1011.7 hPa | 0 mm | - | 0 W/m² | - |
| 1777812480 | 12.22° C | 85% | 1011.7 hPa | 0 mm | - | 0 W/m² | - |
| 1777812178 | 12.22° C | 85% | 1011.5 hPa | 0 mm | - | 0 W/m² | - |
| 1777811876 | 12.22° C | 85% | 1011.5 hPa | 0 mm | - | 0 W/m² | - |
| 1777811575 | 12.22° C | 85% | 1011.5 hPa | 0 mm | - | 0 W/m² | - |
| 1777811270 | 12.22° C | 84% | 1011.5 hPa | 0 mm | - | 0 W/m² | - |
| 1777810967 | 12.22° C | 84% | 1011.4 hPa | 0 mm | - | 0 W/m² | - |
| 1777810664 | 12.22° C | 84% | 1011.4 hPa | 0 mm | - | 0 W/m² | - |
| 1777810361 | 12.22° C | 83% | 1011.7 hPa | 0 mm | - | 0 W/m² | - |
| 1777810057 | 12.22° C | 83% | 1011.4 hPa | 0 mm | - | 0 W/m² | - |
| 1777809755 | 12.78° C | 83% | 1011.5 hPa | 0 mm | - | 0 W/m² | - |
* Rain latest hour (hover to see other rain measurements)
** Current wind speed in m/s (hover to see current wind gust speed)